TimeCET,TemperatureF,Dew PointF,Humidity,Sea Level PressureIn,VisibilityMPH,Wind Direction,Wind SpeedMPH,Gust SpeedMPH,PrecipitationIn,Events,Conditions,WindDirDegrees,DateUTC
12:00 AM,38,37,94,30.32,,Calm,Calm,,,,,,2013-12-07 23:00:00
12:00 AM,37.4,37.4,100,30.30,6.2,NE,1.2,-,N/A,,Partly Cloudy,50,2013-12-07 23:00:00
12:30 AM,37.4,37.4,100,30.30,6.2,ENE,1.2,-,N/A,,Partly Cloudy,60,2013-12-07 23:30:00
1:00 AM,37,36,95,30.32,9,NNW,2.3,,,,Scattered Clouds,330,2013-12-08 00:00:00
1:00 AM,37.4,35.6,93,30.30,6.2,NNE,1.2,-,N/A,,Partly Cloudy,30,2013-12-08 00:00:00
1:30 AM,37.4,35.6,93,30.30,6.2,Calm,Calm,-,N/A,,Partly Cloudy,0,2013-12-08 00:30:00
2:00 AM,37,36,92,30.31,,NNW,2.3,,,,,330,2013-12-08 01:00:00
2:00 AM,37.4,35.6,93,30.30,6.2,North,1.2,-,N/A,,Partly Cloudy,350,2013-12-08 01:00:00
2:30 AM,37.4,37.4,100,30.30,6.2,Calm,Calm,-,N/A,,Partly Cloudy,0,2013-12-08 01:30:00
3:00 AM,37,35,90,30.32,,NNE,2.3,,,,,30,2013-12-08 02:00:00
3:00 AM,37.4,35.6,93,30.30,6.2,Calm,Calm,-,N/A,,Partly Cloudy,0,2013-12-08 02:00:00
3:30 AM,37.4,37.4,100,30.30,6.2,Calm,Calm,-,N/A,,Partly Cloudy,0,2013-12-08 02:30:00
4:00 AM,35.6,35.6,100,30.30,6.2,Calm,Calm,-,N/A,,Partly Cloudy,0,2013-12-08 03:00:00
4:30 AM,35.6,35.6,100,30.30,6.2,NNW,1.2,-,N/A,,Partly Cloudy,340,2013-12-08 03:30:00
5:00 AM,36,35,93,30.31,,Calm,Calm,,,,,,2013-12-08 04:00:00
5:00 AM,37.4,35.6,93,30.30,6.2,Calm,Calm,-,N/A,,Partly Cloudy,0,2013-12-08 04:00:00
5:30 AM,35.6,33.8,93,30.30,6.2,Variable,1.2,-,N/A,,Partly Cloudy,0,2013-12-08 04:30:00
6:00 AM,35,35,97,30.32,,Calm,Calm,,,,,,2013-12-08 05:00:00
6:00 AM,35.6,35.6,100,30.30,6.2,NNE,1.2,-,N/A,,Partly Cloudy,30,2013-12-08 05:00:00
6:30 AM,35.6,35.6,100,30.30,6.2,Calm,Calm,-,N/A,,Partly Cloudy,0,2013-12-08 05:30:00
7:00 AM,35,34,95,30.32,12,NE,1.2,,,,Scattered Clouds,40,2013-12-08 06:00:00
7:00 AM,35.6,33.8,93,30.30,6.2,NE,2.3,-,N/A,,Partly Cloudy,50,2013-12-08 06:00:00
7:30 AM,35.6,35.6,100,30.30,6.2,Variable,1.2,-,N/A,,Partly Cloudy,0,2013-12-08 06:30:00
8:00 AM,35,34,94,30.34,,Calm,Calm,,,,,,2013-12-08 07:00:00
8:00 AM,35.6,35.6,100,30.33,6.2,Calm,Calm,-,N/A,,Partly Cloudy,0,2013-12-08 07:00:00
8:30 AM,35.6,35.6,100,30.33,6.2,Variable,1.2,-,N/A,,Partly Cloudy,0,2013-12-08 07:30:00
9:00 AM,39,38,96,30.35,,NE,2.3,,,,,40,2013-12-08 08:00:00
9:00 AM,39.2,39.2,100,30.33,6.2,East,1.2,-,N/A,,Partly Cloudy,80,2013-12-08 08:00:00
9:30 AM,41.0,41.0,100,30.33,6.2,Calm,Calm,-,N/A,,Partly Cloudy,0,2013-12-08 08:30:00
10:00 AM,48.2,46.4,93,30.36,6.2,Calm,Calm,-,N/A,,Partly Cloudy,0,2013-12-08 09:00:00
10:30 AM,50.0,48.2,94,30.36,6.2,Calm,Calm,-,N/A,,Partly Cloudy,0,2013-12-08 09:30:00
11:00 AM,55,49,73,30.38,,Calm,Calm,,,,,,2013-12-08 10:00:00
11:00 AM,55.4,50.0,82,30.36,6.2,Calm,Calm,-,N/A,,Partly Cloudy,0,2013-12-08 10:00:00
11:30 AM,59.0,50.0,72,30.36,6.2,Calm,Calm,-,N/A,,Partly Cloudy,0,2013-12-08 10:30:00
12:00 PM,61,49,54,30.37,,SSW,1.2,,,,,210,2013-12-08 11:00:00
12:00 PM,59.0,48.2,67,30.36,6.2,Variable,1.2,-,N/A,,Partly Cloudy,0,2013-12-08 11:00:00
12:30 PM,59.0,48.2,67,30.36,6.2,Variable,2.3,-,N/A,,Partly Cloudy,0,2013-12-08 11:30:00
1:00 PM,61,47,50,30.35,19,SW,4.6,,,,Scattered Clouds,220,2013-12-08 12:00:00
1:00 PM,59.0,48.2,67,30.33,6.2,Variable,2.3,-,N/A,,Partly Cloudy,0,2013-12-08 12:00:00
1:30 PM,60.8,48.2,63,30.33,6.2,Calm,Calm,-,N/A,,Partly Cloudy,0,2013-12-08 12:30:00
2:00 PM,62,47,49,30.34,,WSW,2.3,,,,,250,2013-12-08 13:00:00
2:00 PM,60.8,48.2,63,30.33,6.2,Variable,1.2,-,N/A,,Partly Cloudy,0,2013-12-08 13:00:00
2:30 PM,60.8,50.0,68,30.33,6.2,Variable,1.2,-,N/A,,Partly Cloudy,0,2013-12-08 13:30:00
3:00 PM,62,48,51,30.34,,WSW,4.6,,,,,250,2013-12-08 14:00:00
3:00 PM,60.8,50.0,68,30.33,6.2,West,4.6,-,N/A,,Partly Cloudy,260,2013-12-08 14:00:00
3:30 PM,59.0,50.0,72,30.33,6.2,WSW,4.6,-,N/A,,Partly Cloudy,250,2013-12-08 14:30:00
4:00 PM,59.0,50.0,72,30.33,6.2,WSW,4.6,-,N/A,,Partly Cloudy,240,2013-12-08 15:00:00
4:30 PM,59.0,50.0,72,30.33,6.2,WSW,4.6,-,N/A,,Partly Cloudy,240,2013-12-08 15:30:00
5:00 PM,58,49,65,30.35,,WSW,2.3,,,,,240,2013-12-08 16:00:00
5:00 PM,57.2,50.0,77,30.33,6.2,WSW,2.3,-,N/A,,Partly Cloudy,240,2013-12-08 16:00:00
5:30 PM,55.4,50.0,82,30.33,6.2,Calm,Calm,-,N/A,,Partly Cloudy,0,2013-12-08 16:30:00
6:00 PM,52,49,85,30.36,,East,1.2,,,,,90,2013-12-08 17:00:00
6:00 PM,51.8,48.2,88,30.36,6.2,ESE,1.2,-,N/A,,Partly Cloudy,110,2013-12-08 17:00:00
6:30 PM,51.8,48.2,88,30.36,6.2,Variable,1.2,-,N/A,,Partly Cloudy,0,2013-12-08 17:30:00
7:00 PM,48,46,90,30.38,12,ENE,2.3,,,,Scattered Clouds,70,2013-12-08 18:00:00
7:00 PM,48.2,46.4,93,30.36,6.2,ENE,2.3,-,N/A,,Partly Cloudy,60,2013-12-08 18:00:00
7:30 PM,46.4,46.4,100,30.36,6.2,ENE,5.8,-,N/A,,Partly Cloudy,60,2013-12-08 18:30:00
8:00 PM,46,44,89,30.40,,Calm,Calm,,,,,,2013-12-08 19:00:00
8:00 PM,46.4,44.6,93,30.39,6.2,NE,2.3,-,N/A,,Partly Cloudy,50,2013-12-08 19:00:00
8:30 PM,46.4,44.6,93,30.39,6.2,ENE,6.9,-,N/A,,Partly Cloudy,60,2013-12-08 19:30:00
9:00 PM,47,45,91,30.40,,East,2.3,,,,,80,2013-12-08 20:00:00
9:00 PM,46.4,46.4,100,30.39,6.2,NE,4.6,-,N/A,,Partly Cloudy,50,2013-12-08 20:00:00
9:30 PM,46.4,46.4,100,30.39,6.2,NE,3.5,-,N/A,,Scattered Clouds,50,2013-12-08 20:30:00
10:00 PM,48.2,46.4,93,30.39,6.2,ENE,8.1,-,N/A,,Scattered Clouds,60,2013-12-08 21:00:00
10:30 PM,46.4,46.4,100,30.39,6.2,ENE,6.9,-,N/A,,Scattered Clouds,70,2013-12-08 21:30:00
11:00 PM,46,45,94,30.43,,NNE,2.3,,,,,30,2013-12-08 22:00:00
11:00 PM,46.4,44.6,93,30.42,6.2,ENE,4.6,-,N/A,,Scattered Clouds,70,2013-12-08 22:00:00
11:30 PM,46.4,46.4,100,30.42,6.2,ENE,4.6,-,N/A,,Scattered Clouds,70,2013-12-08 22:30:00